sat.trackr.live / text

‹ back to catalog

STARLINK-34628

NORAD 64864 · 2025-152Y

PAYLOAD ACTIVE UNKNOWN

§ Identity

Operator
Country
US
Launch date
2025-07-19
Launch site
AFWTR
Launch vehicle
Mass (kg)
RCS (m²)

Purposes: comms

External: N2YO · Heavens-Above · Gunter

§ Orbital elements

Epoch: 2026-05-25T03:28:15.410784Z

Period
95.64 min
Inclination
97.4486°
Eccentricity
0.0001939
Mean motion
15.05658131 rev/d
Perigee alt
548.1 km
Apogee alt
550.8 km
Semi-major
6,927.6 km
B*
3.5396e-4
RAAN
0.5194°
Arg perigee
85.8283°
Mean anomaly
274.3165°
Rev number
4,692

§ Raw data

STARLINK-346281 64864U 25152Y   26145.14462281  .00005053  00000+0  35396-3 0  99902 64864  97.4486   0.5194 0001939  85.8283 274.3165 15.05658131 46927

JSON: /api/v1/satellites/64864 · /tle

For live sub-satellite position, see the globe view (requires WebGL).

§ Visibility from observer

Set your observer location to see the next 7 days of passes ≥ 10°. The values pass through the URL so the page stays shareable.

No JS? Fill the form by hand. The geolocation button needs JavaScript.